Location: *
(46.4000°N, 12.6667°E)
Time: 02:47:52
(UTC+00:00)

STARLINK-1241 - Pass Details

Date: 09 April 2020
Orbit: 549 x 551 km, 53.0° (Epoch: 26 May)

Event Time Altitude Azimuth Distance (km) Brightness Sun altitude
Rises 20:10:55 0° 299° (WNW) 2,725 8.6 -22.5°
Reaches altitude 10° 20:13:09 10° 297° (WNW) 1,828 7.3 -22.8°
Enters shadow 20:17:05 67° 238° (WSW) 597 3.7 -23.3°
